SCP
1 0 -0 -0 0 0 -0 0 0 0 0 0 0 0 -0 0 -0 -0 -0 -0 0 0 0 0 0 0 0 0 0 0 1 0
0 0 0 0 0 0 0 0 0 0 0 0 0 0 0 0 0 0 0 -0 0 0 0 0 0 0 0 0 1 1 1 1
0 1 1 0 -0 0 0 0 0 1 1 0 0 0 0 0 0 0 0 0 0 0 0 0 1 1 2 1 1 1 0 0
0 0 -0 0 0 0 0 1 1 1 1 1 1 1 1 0 1 1 0 0 0 0 0 1 0 1 1 1 1 0 0 0
-0 0 2 1 0 0 1 1 1 1 1 1 1 1 1 1 1 1 1 1 1 1 1 1 1 1 1 1 0 0 0 0
1 1 1 2 3 1 2 2 1 1 1 1 1 1 1 1 1 1 1 1 1 1 1 1 1 1 1 1 0 0 0 0
0 0 0 1 1 3 4 2 2 2 1 1 2 2 1 2 1 1 1 1 1 1 1 1 0 0 1 0 0 0 0 0
0 0 0 0 0 0 0 0 1 1 2 2 2 2 1 1 1 1 1 1 1 0 1 1 0 0 0 0 0 0 0 0
0 0 -0 0 0 0 0 0 0 1 2 1 2 2 1 1 1 1 1 1 1 0 1 1 0 0 0 0 0 0 0 0
0 0 0 0 0 0 0 0 0 0 0 1 1 1 1 1 1 1 1 1 0 0 1 1 0 0 0 0 0 0 0 0
0 0 0 0 0 0 0 0 0 0 0 0 0 1 1 1 1 1 1 1 1 1 1 1 1 0 0 0 0 0 0 0
0 0 0 0 0 0 0 0 0 0 0 0 0 0 0 0 0 0 0 1 1 1 1 1 1 1 1 1 1 1 1 0
0 0 0 0 0 0 0 0 0 0 0 0 0 0 0 0 0 0 0 0 1 1 1 1 1 1 2 1 2 1 1 1
0 0 0 0 0 0 0 0 0 0 0 0 0 0 0 0 0 0 0 0 0 0 1 1 2 2 2 2 2 2 2 2
0 0 0 0 0 0 0 0 0 0 0 0 0 0 0 0 0 0 0 0 0 0 0 0 0 2 2 2 3 3 2 2
0 0 0 0 0 0 0 0 0 0 0 0 0 0 0 0 0 0 0 0 0 0 0 0 0 0 1 2 2 3 3 3
0 0 0 0 0 0 0 0 0 0 0 0 0 0 0 0 0 0 0 0 0 0 0 0 0 0 0 1 1 2 2 1
0 0 0 0 0 0 0 0 0 0 0 0 0 0 0 0 0 0 0 0 0 0 0 0 0 0 0 0 1 0 0 0
0 0 0 0 0 0 0 0 0 0 0 0 0 0 0 0 0 0 0 0 0 0 0 0 0 0 0 0 0 0 0 0
0 0 0 0 0 0 0 0 0 0 0 0 0 0 0 0 0 0 0 0 0 0 0 0 0 0 0 0 0 0 0 0
Wind_Speed_500mb
12 13 16 9 6 22 25 22 18 20 17 15 11 9 8 7 10 8 8 11 13 11 12 14 17 19 18 22 18 15 20 19
17 8 7 3 16 25 22 22 23 18 17 12 11 11 9 6 9 10 8 9 14 12 13 15 16 15 19 20 24 22 14 15
11 21 11 19 35 27 25 28 25 23 20 17 14 13 9 8 12 12 11 12 15 14 14 13 18 22 31 30 29 24 22 21
17 23 22 13 23 20 27 31 26 20 17 18 16 14 14 18 15 15 16 18 21 21 20 21 25 28 30 34 34 39 32 25
30 21 18 23 5 17 21 32 32 26 24 19 18 17 15 18 20 19 17 21 25 24 20 25 24 37 37 38 43 42 33 32
30 20 17 17 13 5 13 16 29 25 17 19 20 18 17 19 21 22 22 26 28 27 24 29 36 38 37 42 45 42 38 35
36 26 11 7 8 16 14 12 9 11 18 19 14 16 19 21 23 22 28 32 33 32 34 38 39 36 33 31 31 29 29 31
40 40 33 21 22 22 27 30 23 13 17 16 10 15 20 22 24 26 26 28 33 35 37 35 30 27 27 28 26 22 23 23
48 43 43 43 41 29 25 21 20 13 10 8 4 15 17 20 23 27 28 31 37 38 36 35 28 28 28 33 31 29 24 25
46 46 47 51 46 40 36 26 19 8 5 8 7 11 15 18 25 29 32 37 38 37 32 30 32 28 35 37 37 26 27 26
37 40 40 39 41 39 36 31 26 23 11 3 1 7 12 11 15 17 21 25 26 30 32 30 35 32 28 35 38 40 36 34
34 34 39 39 36 32 30 27 26 22 18 16 16 16 17 20 22 24 27 25 27 27 31 34 37 31 32 33 37 38 35 38
33 33 32 33 33 32 29 27 24 24 26 25 27 28 30 31 33 39 38 32 33 32 32 32 36 38 41 43 39 40 37 43
27 28 30 31 31 32 34 36 36 35 35 38 40 42 45 48 51 52 38 43 35 33 34 38 46 46 45 42 42 41 45 45
27 30 32 32 34 34 33 36 37 39 41 42 44 47 49 47 49 41 54 48 40 37 46 51 49 44 47 46 50 49 44 42
26 32 34 36 37 38 40 43 43 46 47 47 44 43 37 40 39 47 49 48 49 48 49 46 46 49 53 52 53 50 47 46
28 29 33 35 39 43 45 47 47 48 48 48 44 42 44 45 47 46 43 44 46 48 50 52 51 49 50 52 55 47 47 53
24 28 32 34 35 36 38 43 44 44 45 44 45 47 45 46 45 45 47 48 45 46 44 45 47 47 46 47 47 41 48 48
23 26 29 29 30 34 39 40 40 43 44 46 46 44 44 45 44 47 47 39 37 36 38 39 42 41 41 44 41 43 41 38
24 25 26 28 34 37 38 40 40 41 44 44 44 40 37 37 36 36 33 36 31 30 33 32 35 34 34 36 38 35 34 32
Wind_Direction_500mb
187 173 171 138 318 225 205 191 176 185 178 186 180 186 205 225 231 238 253 257 276 278 266 281 270 265 256 272 259 264 251 239
351 146 16 26 307 245 224 222 202 196 204 191 201 190 215 203 246 258 251 288 278 264 266 262 257 253 253 253 240 237 241 238
58 333 330 268 219 238 234 228 211 215 217 219 206 208 224 229 258 264 269 284 276 277 261 260 260 260 250 248 250 238 230 237
28 337 343 280 261 256 236 230 226 219 230 235 237 248 249 263 272 269 285 289 283 283 279 270 281 272 281 268 262 258 244 232
38 24 311 357 306 235 239 224 236 232 228 256 259 269 268 264 272 280 286 293 296 286 274 273 278 281 285 276 269 264 233 235
43 2 346 342 44 105 202 187 220 237 246 262 253 255 279 288 284 281 283 292 290 286 279 285 291 286 281 275 269 255 227 226
47 46 45 104 116 96 143 152 174 219 255 253 261 288 298 288 277 272 273 284 283 287 285 291 292 284 279 279 279 269 238 232
60 65 72 89 113 130 132 141 172 180 271 259 268 277 285 283 279 280 283 283 288 290 291 290 286 274 270 270 267 260 232 230
65 67 80 86 91 98 126 137 177 152 136 206 277 293 287 290 282 281 279 278 285 282 282 285 277 272 261 270 263 252 244 248
58 58 60 72 81 80 78 98 79 123 282 300 296 293 289 295 292 286 283 283 285 280 273 272 274 263 275 265 264 247 256 258
61 57 53 60 64 58 62 63 64 65 78 69 2 358 358 330 321 311 290 290 291 289 281 270 269 268 264 263 259 258 266 263
56 47 45 41 43 40 43 39 35 31 20 7 356 355 348 329 326 304 295 291 280 280 277 271 267 259 255 261 270 261 267 270
46 38 37 33 29 24 18 11 2 355 345 335 328 321 316 311 307 301 302 303 300 293 277 276 271 270 268 271 262 265 262 272
35 29 25 21 15 9 1 352 345 337 329 322 317 309 304 303 298 295 298 292 297 293 284 273 268 268 268 267 265 261 267 265
19 15 14 9 4 1 355 346 342 331 322 313 309 302 299 297 289 294 283 288 289 284 279 274 266 263 268 265 261 264 264 264
8 8 4 359 355 353 354 347 342 334 330 324 320 316 312 305 300 296 294 291 289 285 287 289 288 277 266 267 268 265 263 262
3 360 356 351 350 351 347 342 338 334 329 325 325 320 316 313 309 304 299 293 291 290 288 289 287 288 283 279 267 265 261 263
356 353 349 349 348 345 341 337 334 332 330 327 322 321 319 315 313 309 306 304 300 295 297 296 292 285 281 282 280 280 281 279
349 346 344 344 341 338 336 336 335 331 329 326 326 323 322 321 319 318 315 314 313 312 307 300 296 291 281 276 277 280 283 282
346 344 343 343 342 340 341 338 337 333 331 331 327 325 323 324 327 327 334 342 338 318 312 310 299 292 290 276 277 278 278 285
Wind_Speed_850mb
12 13 16 9 6 22 25 22 18 20 17 15 11 9 8 7 10 8 8 11 13 11 12 14 17 19 18 22 18 15 20 19
17 8 7 3 16 25 22 22 23 18 17 12 11 11 9 6 9 10 8 9 14 12 13 15 16 15 19 20 24 22 14 15
11 21 11 19 35 27 25 28 25 23 20 17 14 13 9 8 12 12 11 12 15 14 14 13 18 22 31 30 29 24 22 21
17 23 22 13 23 20 27 31 26 20 17 18 16 14 14 18 15 15 16 18 21 21 20 21 25 28 30 34 34 39 32 25
30 21 18 23 5 17 21 32 32 26 24 19 18 17 15 18 20 19 17 21 25 24 20 25 24 37 37 38 43 42 33 32
30 20 17 17 13 5 13 16 29 25 17 19 20 18 17 19 21 22 22 26 28 27 24 29 36 38 37 42 45 42 38 35
36 26 11 7 8 16 14 12 9 11 18 19 14 16 19 21 23 22 28 32 33 32 34 38 39 36 33 31 31 29 29 31
40 40 33 21 22 22 27 30 23 13 17 16 10 15 20 22 24 26 26 28 33 35 37 35 30 27 27 28 26 22 23 23
48 43 43 43 41 29 25 21 20 13 10 8 4 15 17 20 23 27 28 31 37 38 36 35 28 28 28 33 31 29 24 25
46 46 47 51 46 40 36 26 19 8 5 8 7 11 15 18 25 29 32 37 38 37 32 30 32 28 35 37 37 26 27 26
37 40 40 39 41 39 36 31 26 23 11 3 1 7 12 11 15 17 21 25 26 30 32 30 35 32 28 35 38 40 36 34
34 34 39 39 36 32 30 27 26 22 18 16 16 16 17 20 22 24 27 25 27 27 31 34 37 31 32 33 37 38 35 38
33 33 32 33 33 32 29 27 24 24 26 25 27 28 30 31 33 39 38 32 33 32 32 32 36 38 41 43 39 40 37 43
27 28 30 31 31 32 34 36 36 35 35 38 40 42 45 48 51 52 38 43 35 33 34 38 46 46 45 42 42 41 45 45
27 30 32 32 34 34 33 36 37 39 41 42 44 47 49 47 49 41 54 48 40 37 46 51 49 44 47 46 50 49 44 42
26 32 34 36 37 38 40 43 43 46 47 47 44 43 37 40 39 47 49 48 49 48 49 46 46 49 53 52 53 50 47 46
28 29 33 35 39 43 45 47 47 48 48 48 44 42 44 45 47 46 43 44 46 48 50 52 51 49 50 52 55 47 47 53
24 28 32 34 35 36 38 43 44 44 45 44 45 47 45 46 45 45 47 48 45 46 44 45 47 47 46 47 47 41 48 48
23 26 29 29 30 34 39 40 40 43 44 46 46 44 44 45 44 47 47 39 37 36 38 39 42 41 41 44 41 43 41 38
24 25 26 28 34 37 38 40 40 41 44 44 44 40 37 37 36 36 33 36 31 30 33 32 35 34 34 36 38 35 34 32
Wind_Direction_850mb
187 173 171 138 318 225 205 191 176 185 178 186 180 186 205 225 231 238 253 257 276 278 266 281 270 265 256 272 259 264 251 239
351 146 16 26 307 245 224 222 202 196 204 191 201 190 215 203 246 258 251 288 278 264 266 262 257 253 253 253 240 237 241 238
58 333 330 268 219 238 234 228 211 215 217 219 206 208 224 229 258 264 269 284 276 277 261 260 260 260 250 248 250 238 230 237
28 337 343 280 261 256 236 230 226 219 230 235 237 248 249 263 272 269 285 289 283 283 279 270 281 272 281 268 262 258 244 232
38 24 311 357 306 235 239 224 236 232 228 256 259 269 268 264 272 280 286 293 296 286 274 273 278 281 285 276 269 264 233 235
43 2 346 342 44 105 202 187 220 237 246 262 253 255 279 288 284 281 283 292 290 286 279 285 291 286 281 275 269 255 227 226
47 46 45 104 116 96 143 152 174 219 255 253 261 288 298 288 277 272 273 284 283 287 285 291 292 284 279 279 279 269 238 232
60 65 72 89 113 130 132 141 172 180 271 259 268 277 285 283 279 280 283 283 288 290 291 290 286 274 270 270 267 260 232 230
65 67 80 86 91 98 126 137 177 152 136 206 277 293 287 290 282 281 279 278 285 282 282 285 277 272 261 270 263 252 244 248
58 58 60 72 81 80 78 98 79 123 282 300 296 293 289 295 292 286 283 283 285 280 273 272 274 263 275 265 264 247 256 258
61 57 53 60 64 58 62 63 64 65 78 69 2 358 358 330 321 311 290 290 291 289 281 270 269 268 264 263 259 258 266 263
56 47 45 41 43 40 43 39 35 31 20 7 356 355 348 329 326 304 295 291 280 280 277 271 267 259 255 261 270 261 267 270
46 38 37 33 29 24 18 11 2 355 345 335 328 321 316 311 307 301 302 303 300 293 277 276 271 270 268 271 262 265 262 272
35 29 25 21 15 9 1 352 345 337 329 322 317 309 304 303 298 295 298 292 297 293 284 273 268 268 268 267 265 261 267 265
19 15 14 9 4 1 355 346 342 331 322 313 309 302 299 297 289 294 283 288 289 284 279 274 266 263 268 265 261 264 264 264
8 8 4 359 355 353 354 347 342 334 330 324 320 316 312 305 300 296 294 291 289 285 287 289 288 277 266 267 268 265 263 262
3 360 356 351 350 351 347 342 338 334 329 325 325 320 316 313 309 304 299 293 291 290 288 289 287 288 283 279 267 265 261 263
356 353 349 349 348 345 341 337 334 332 330 327 322 321 319 315 313 309 306 304 300 295 297 296 292 285 281 282 280 280 281 279
349 346 344 344 341 338 336 336 335 331 329 326 326 323 322 321 319 318 315 314 313 312 307 300 296 291 281 276 277 280 283 282
346 344 343 343 342 340 341 338 337 333 331 331 327 325 323 324 327 327 334 342 338 318 312 310 299 292 290 276 277 278 278 285